GFSSGP_925_temp_276.txt.gz
Temp
19 19 20 18 17 15 16 18 19 19 20 20 18 20 18 17 19 20 20 20 20 20 19 19 18 18 19 18 18 18 18 17 17 17 17 17 17 17 17 17 17 17 17 17 18 17 17 17 18
18 19 19 14 15 16 16 17 20 20 20 18 18 19 18 18 18 18 18 20 19 19 19 19 18 18 19 18 18 18 18 17 17 17 17 17 17 17 17 17 17 17 17 18 17 17 17 18 17
18 19 16 15 14 15 17 18 19 20 19 20 19 17 17 18 17 17 18 19 19 18 18 19 18 18 18 18 18 18 18 18 17 17 17 17 17 17 17 16 17 17 17 17 17 17 17 17 17
18 16 14 15 16 17 17 19 19 18 20 19 18 18 17 17 17 18 18 18 18 18 18 19 19 19 19 18 18 18 18 18 17 17 17 17 17 17 17 17 17 17 17 17 17 17 17 17 17
17 13 15 15 16 17 17 18 17 19 20 19 19 18 17 17 18 18 18 18 18 18 18 18 19 19 19 19 18 18 18 18 17 17 17 17 17 17 17 17 17 17 17 17 17 17 17 16 16
14 13 14 15 16 17 18 15 16 18 18 18 18 18 17 18 19 19 19 18 18 17 17 17 18 17 18 19 19 18 18 18 18 18 17 17 17 17 17 17 18 17 17 17 17 17 17 16 16
15 14 15 16 16 18 18 15 17 17 18 18 17 18 16 17 18 19 19 18 17 17 17 17 17 18 18 18 18 18 18 18 18 18 17 17 17 17 17 17 17 17 17 17 16 16 17 16 16
12 13 16 15 16 18 15 16 17 16 17 14 17 17 17 17 18 19 19 19 18 18 18 18 18 18 17 17 17 17 17 17 18 18 17 17 17 17 18 17 17 17 17 17 16 16 16 17 16
13 13 13 16 16 17 14 15 16 13 14 14 15 16 16 17 17 18 18 19 18 18 17 17 17 17 17 17 16 16 16 16 16 17 17 17 17 17 17 17 17 17 17 17 16 16 16 16 15
13 12 14 15 15 15 14 14 14 14 12 14 14 15 15 16 16 15 15 15 17 17 17 16 16 16 16 16 17 16 16 15 16 16 16 17 17 17 17 17 17 17 17 17 16 16 16 16 15
13 13 14 15 14 14 14 14 13 13 14 12 15 15 12 13 13 13 14 15 16 16 15 15 15 15 15 16 16 16 15 15 15 14 15 15 16 17 16 17 16 16 16 16 16 16 16 16 15
15 14 15 15 14 14 14 13 13 11 13 14 12 10 10 11 11 13 13 15 15 15 15 15 15 15 15 15 15 15 15 15 15 15 15 14 14 15 16 16 16 16 16 16 16 16 15 15 15
14 14 13 13 12 12 13 12 12 11 10 10 10 11 11 10 11 13 14 15 15 15 15 15 15 15 15 15 15 15 15 14 14 14 14 14 15 13 14 15 15 16 16 16 16 16 16 15 15
13 13 12 12 13 13 13 12 12 11 11 11 11 10 9 9 10 12 13 14 15 15 15 14 14 14 14 14 13 13 13 13 13 14 14 14 13 13 13 13 14 14 15 16 16 16 16 15 15
12 14 13 12 11 13 10 11 9 10 11 11 10 9 8 8 10 10 12 13 13 13 13 13 12 12 12 12 12 12 12 12 12 12 13 13 13 13 12 12 11 14 14 15 14 16 16 15 15
12 11 13 12 10 11 12 12 13 10 9 9 8 7 7 8 9 11 12 12 12 12 12 12 12 12 12 12 11 11 11 11 12 12 12 12 12 12 12 11 12 11 13 14 13 14 14 14 13
10 14 12 11 9 9 11 10 11 10 8 8 8 7 8 9 8 10 11 11 11 11 10 10 10 10 9 9 9 9 9 9 10 10 10 11 11 11 11 12 11 11 12 13 13 13 14 13 12
15 14 11 9 10 8 8 8 10 8 8 8 7 7 8 9 9 10 11 10 10 10 9 8 8 7 7 6 6 6 6 7 7 7 8 8 9 9 10 11 11 11 10 12 13 13 13 13 12
9 11 10 8 8 8 7 6 9 8 7 8 9 9 9 9 10 10 10 10 9 9 8 7 6 6 5 4 3 4 4 4 4 4 5 6 7 7 8 9 9 10 11 11 11 13 13 13 12
10 10 9 9 9 8 7 8 8 7 10 11 10 8 8 10 8 8 9 9 8 8 7 6 4 4 3 2 2 2 2 2 2 2 3 3 4 5 6 7 7 8 9 10 10 10 12 13 11
9 10 10 9 8 7 6 9 10 12 11 9 9 8 9 8 7 6 7 7 7 6 6 5 3 2 1 1 0 0 0 0 1 1 2 2 3 4 4 5 6 7 8 9 9 8 8 12 9
12 9 8 8 7 7 7 7 9 10 10 10 8 8 9 7 6 6 5 6 5 5 4 3 2 0 -0 -0 -1 -1 -1 -1 -1 -0 0 1 1 2 3 4 5 6 7 8 8 8 8 8 10
10 8 8 8 6 6 7 5 8 9 10 9 7 7 8 7 5 5 4 5 4 4 3 1 0 -1 -1 -2 -2 -2 -2 -2 -2 -2 -1 -1 -0 1 2 3 4 5 6 7 8 8 8 9 9
7 7 7 5 6 3 7 7 9 9 10 11 9 7 8 5 4 3 4 4 3 2 1 -0 -1 -2 -2 -2 -3 -3 -3 -2 -2 -2 -2 -2 -1 -1 0 2 3 3 4 5 6 7 7 7 8
8 6 3 6 3 6 6 7 9 10 9 10 8 7 6 4 3 2 2 2 2 1 -1 -2 -2 -3 -3 -3 -3 -3 -3 -3 -2 -2 -2 -2 -1 -1 -1 0 1 2 3 4 6 7 7 6 6
7 6 5 8 7 6 6 6 10 9 9 7 7 7 5 3 2 1 1 1 1 -0 -2 -3 -3 -4 -4 -3 -3 -3 -3 -2 -2 -2 -2 -2 -1 -1 -1 -0 1 2 3 4 5 6 7 7 8
6 5 5 -0 -3 1 4 6 8 8 6 7 6 6 4 3 2 1 1 1 -0 -2 -3 -3 -4 -4 -4 -4 -4 -3 -3 -2 -2 -2 -2 -2 -2 -2 -1 -0 0 1 2 3 4 5 6 7 8
6 5 6 1 7 6 5 5 8 12 12 6 5 6 3 3 1 0 0 -0 -1 -2 -3 -4 -4 -5 -4 -4 -3 -3 -3 -3 -2 -2 -1 -1 -1 -2 -2 -1 -0 1 1 2 3 4 5 7 8
5 3 2 3 4 4 2 7 5 8 9 5 4 5 3 1 0 -0 -1 -1 -2 -3 -4 -5 -5 -5 -4 -4 -4 -3 -3 -3 -3 -2 -2 -0 -1 -1 -1 -1 -0 0 1 2 3 4 5 6 8
7 6 3 4 5 1 1 6 8 6 5 5 4 4 2 1 -0 -1 -2 -2 -3 -4 -4 -5 -5 -5 -5 -4 -4 -4 -3 -3 -3 -3 -2 -2 -1 -1 -1 -1 -0 0 1 2 2 3 4 5 7

GFSSGP_925_temp_279.txt.gz
Temp
19 19 19 18 19 17 17 19 19 20 20 20 18 20 21 18 21 22 19 19 19 19 19 19 19 19 19 18 18 18 18 18 18 18 17 18 18 17 17 17 18 18 17 18 18 18 17 17 17
19 18 18 15 17 17 18 18 19 20 20 18 18 18 19 19 18 18 18 18 18 18 18 18 18 18 18 18 18 18 18 18 17 17 17 17 17 17 17 17 17 17 17 18 18 18 17 18 17
18 18 17 16 15 17 18 18 19 20 19 19 19 17 18 18 17 17 18 18 17 18 19 18 18 18 18 18 18 18 18 18 18 17 17 17 17 17 17 17 17 17 17 18 18 17 18 18 17
18 16 15 16 16 17 18 19 19 19 20 18 18 19 17 17 17 18 18 18 18 17 18 18 18 18 19 18 18 18 18 18 18 18 17 17 17 17 17 17 17 17 17 17 17 17 18 18 18
16 14 15 16 16 17 17 17 17 19 19 19 18 18 17 17 17 18 18 18 18 17 17 17 17 17 17 18 18 18 18 18 17 17 18 17 17 17 17 17 17 17 17 17 17 17 17 17 17
15 14 15 16 15 17 17 15 17 18 17 18 18 18 17 17 18 17 17 17 17 17 17 17 17 17 18 18 17 17 17 18 18 18 17 17 17 17 17 17 17 17 17 17 17 17 18 17 17
15 15 15 15 15 17 17 15 17 17 17 17 17 18 17 17 17 17 18 18 17 17 17 17 17 17 17 17 16 17 17 17 17 17 17 17 17 17 17 17 17 17 17 17 17 17 17 17 17
13 14 15 14 16 17 15 15 16 16 17 15 16 17 17 16 17 18 18 18 18 18 17 17 18 18 18 17 17 16 16 17 16 16 16 17 17 17 17 17 17 17 17 17 17 16 17 17 17
13 14 14 16 15 17 14 16 15 13 14 15 15 16 15 16 16 18 18 18 17 17 17 17 17 17 17 17 17 17 17 16 15 15 16 16 16 17 17 17 17 17 17 17 17 16 16 16 17
13 13 14 14 14 15 14 14 14 15 13 15 15 15 15 15 15 14 14 15 16 16 16 16 16 16 16 16 16 16 16 16 16 15 15 15 15 16 17 17 17 17 17 17 17 16 16 16 16
12 13 13 14 14 14 14 14 13 14 15 14 16 15 12 12 13 13 14 14 15 15 16 15 15 15 15 15 15 15 15 15 15 15 15 15 15 15 15 16 16 17 17 16 16 16 16 16 16
14 14 13 14 14 13 14 13 13 11 14 12 12 11 10 11 11 12 13 15 15 15 15 15 14 14 14 14 14 14 14 14 14 14 14 15 15 14 14 15 15 16 17 16 16 16 16 16 16
14 14 13 12 12 12 12 12 12 11 11 10 11 11 11 10 11 13 13 14 14 14 14 13 13 13 13 13 13 13 13 13 13 13 13 13 14 15 15 13 13 14 15 16 16 16 16 15 15
12 12 12 12 11 12 12 11 12 12 10 10 11 11 9 9 9 10 12 13 13 13 13 12 12 12 12 12 12 12 12 12 12 12 12 12 12 13 14 14 15 13 13 15 15 16 15 15 15
12 13 12 10 10 12 9 12 9 9 11 11 10 9 9 8 9 9 11 11 12 12 12 12 12 12 12 12 12 12 12 12 12 12 12 12 12 12 12 12 13 14 12 12 14 14 15 14 14
12 11 14 11 9 11 12 13 13 8 8 9 9 8 8 8 8 9 10 11 11 11 12 12 12 12 11 11 10 11 11 10 10 10 10 10 11 11 11 11 11 12 12 13 11 13 13 13 13
11 14 13 12 8 9 11 11 11 9 9 9 8 8 7 8 8 9 10 10 11 11 11 10 10 9 8 8 7 7 7 7 8 7 8 8 8 9 9 10 10 11 12 12 11 12 13 13 13
14 14 12 11 10 8 8 9 9 9 8 9 7 7 8 8 9 9 10 10 10 9 9 8 7 6 5 4 4 4 3 4 4 4 5 5 5 6 6 7 9 9 10 11 11 10 12 13 13
10 12 12 10 8 8 8 6 9 9 7 7 7 8 8 8 9 9 9 9 8 8 7 6 5 4 3 2 2 2 2 2 2 2 2 3 3 4 5 6 7 8 8 9 10 9 8 8 13
11 11 11 9 8 8 7 8 8 7 7 8 9 8 8 9 9 8 8 8 8 7 6 5 4 3 2 1 1 0 0 0 0 0 1 1 2 2 3 4 4 5 6 7 8 8 8 7 9
10 11 10 10 8 7 6 10 10 11 10 9 9 8 8 9 8 7 7 7 6 6 5 4 3 2 1 -0 -0 -1 -1 -1 -1 -0 -0 0 1 1 2 3 3 4 5 6 7 8 7 8 8
13 9 9 8 9 9 7 10 11 9 9 10 8 7 7 8 7 6 5 6 5 5 4 3 2 0 -1 -1 -1 -2 -2 -1 -1 -1 -1 -1 -1 -0 0 1 2 2 4 5 6 7 8 8 8
10 8 8 8 6 6 7 6 10 8 11 10 8 7 6 7 6 5 5 4 4 3 2 1 -0 -1 -1 -2 -2 -2 -2 -2 -2 -2 -2 -2 -2 -2 -1 -1 1 2 3 4 5 6 7 7 8
6 7 6 5 6 5 7 7 11 10 11 11 9 7 6 7 5 4 4 4 3 2 1 -0 -1 -2 -3 -3 -3 -3 -3 -3 -3 -3 -3 -2 -2 -2 -1 -1 -1 0 1 2 4 5 6 7 7
8 7 5 7 5 8 6 7 11 11 9 10 10 6 6 6 4 3 2 2 1 1 -0 -1 -2 -3 -3 -4 -4 -3 -3 -3 -3 -3 -2 -2 -2 -2 -1 -1 -1 -0 0 1 2 3 5 6 7
8 6 6 9 9 7 6 7 13 9 9 7 8 6 6 5 3 2 1 1 0 -0 -1 -2 -3 -4 -4 -4 -4 -3 -3 -3 -3 -2 -2 -2 -2 -2 -1 -1 -1 -1 -0 0 1 2 4 5 6
6 6 5 -0 -3 4 7 8 10 8 6 6 6 5 6 4 3 2 1 1 -0 -1 -2 -3 -4 -4 -4 -4 -4 -3 -3 -3 -3 -2 -2 -2 -2 -1 -1 -1 -1 -1 -0 0 1 2 3 4 6
6 5 6 3 8 8 7 6 12 13 13 7 5 5 5 4 2 1 1 -0 -1 -1 -2 -3 -4 -5 -5 -5 -4 -4 -4 -3 -3 -3 -2 -2 -2 -1 -1 -1 -1 -1 -1 -0 0 1 2 2 4
4 4 3 4 4 6 6 10 7 10 10 6 6 4 4 3 2 1 -0 -0 -1 -2 -3 -4 -5 -5 -5 -5 -5 -5 -4 -4 -4 -3 -3 -3 -3 -2 -2 -1 -1 -1 -1 -1 -0 1 1 3 4
7 6 5 6 6 2 2 8 9 7 7 6 5 4 3 2 1 -0 -1 -1 -2 -3 -4 -4 -5 -5 -5 -5 -5 -5 -5 -5 -4 -4 -4 -4 -3 -3 -2 -2 -1 -1 -1 -0 0 1 2 2 3

GFSSGP_925_temp_285.txt.gz
Temp
19 20 22 24 24 25 25 26 28 27 26 27 26 26 27 26 25 24 22 21 21 21 21 20 19 18 19 19 19 19 19 19 19 19 19 19 19 19 19 19 19 19 19 19 19 19 19 18 18
20 21 23 26 23 24 25 27 26 27 27 26 26 26 26 24 24 24 23 21 20 21 21 20 19 18 18 18 19 19 19 19 19 19 19 18 18 18 18 18 19 19 18 18 19 19 18 18 18
19 21 25 24 24 24 24 26 27 27 26 26 26 26 26 23 23 23 21 21 20 21 21 18 18 18 18 18 18 18 18 18 19 18 18 18 18 18 18 18 18 18 19 18 18 18 18 18 18
21 24 25 23 24 26 25 26 27 26 26 26 27 25 23 22 23 21 20 18 18 18 18 18 18 18 18 18 18 18 18 18 18 18 18 18 18 18 18 18 18 18 18 17 18 18 18 18 17
21 25 23 23 24 26 25 25 26 26 27 26 26 25 24 22 21 21 20 19 18 18 18 18 17 18 18 18 18 18 18 17 17 17 17 17 17 17 17 18 18 18 18 17 17 18 18 18 18
23 25 23 24 25 26 26 26 25 25 27 26 25 25 24 21 21 20 21 20 19 18 17 17 17 17 17 17 17 17 17 17 17 17 17 17 17 17 17 17 17 17 17 17 17 17 18 17 18
23 23 23 25 25 25 25 24 24 25 26 25 25 25 23 22 20 20 20 20 19 18 17 17 17 17 16 17 17 16 16 16 17 17 17 17 16 16 16 16 17 17 17 17 17 17 17 17 17
24 24 23 24 24 24 25 23 24 24 25 23 24 25 24 23 20 20 20 20 19 18 18 17 16 16 16 16 17 17 17 16 16 16 16 16 16 16 16 16 16 16 17 17 17 17 17 17 17
23 22 23 24 24 25 23 23 23 22 23 23 23 24 21 19 19 20 20 20 20 18 18 17 16 16 16 16 15 15 16 16 16 16 16 17 16 15 15 15 16 16 16 16 16 17 17 17 17
22 22 24 25 25 23 23 22 23 22 23 22 22 21 19 20 20 21 21 22 20 19 17 17 16 15 15 16 15 15 15 14 14 14 15 15 16 16 15 15 15 16 16 16 16 16 17 17 17
21 22 24 23 22 21 22 21 22 22 23 24 24 23 21 20 20 20 21 20 20 18 18 16 15 15 14 14 14 14 14 14 14 14 14 14 14 15 15 16 15 15 15 16 16 16 16 16 16
20 22 22 21 20 19 20 21 20 21 23 21 21 21 20 20 20 20 20 20 19 18 17 16 15 14 13 14 14 14 14 13 14 14 13 13 13 13 13 15 16 15 14 15 15 15 16 15 16
19 22 20 20 18 18 19 19 20 21 22 21 20 18 19 20 20 19 19 18 17 17 17 16 15 14 14 13 13 13 14 14 13 13 13 13 13 13 13 13 13 15 15 14 14 14 15 15 15
20 21 19 18 18 18 17 19 17 21 21 21 20 19 20 19 19 19 18 18 18 17 16 15 14 13 13 13 12 12 12 12 12 12 12 12 12 12 13 13 13 13 14 15 14 14 14 14 14
18 18 19 19 18 18 16 18 19 21 18 19 18 19 19 19 18 18 18 18 17 16 14 14 13 13 12 12 12 11 11 11 11 11 11 11 11 11 12 12 13 12 12 12 13 14 14 13 13
18 18 19 21 17 17 16 22 22 20 19 19 19 20 19 19 17 17 16 16 16 15 14 13 12 12 11 11 10 10 10 10 9 9 10 10 10 10 10 10 11 12 12 11 10 11 13 13 14
18 21 20 18 17 17 17 21 20 18 18 20 20 20 19 18 17 16 15 15 14 14 13 13 12 11 10 9 9 9 9 8 8 8 8 8 8 8 8 9 9 10 11 11 11 11 10 10 12
21 19 21 21 17 15 17 18 21 18 18 19 20 21 20 18 17 15 15 14 13 13 12 12 11 11 9 9 8 8 8 8 8 7 7 6 6 6 6 7 8 8 9 9 10 10 10 10 10
18 20 21 19 14 14 18 19 21 22 20 18 20 20 20 18 17 15 14 13 13 12 12 11 10 10 9 8 8 7 7 7 7 6 6 5 5 5 5 5 6 7 8 8 9 10 10 10 9
17 19 20 16 14 14 18 18 20 21 21 20 19 19 20 18 17 15 14 13 13 12 11 10 10 9 8 7 6 5 5 5 5 5 4 4 4 4 4 4 5 5 6 7 8 9 9 10 10
17 18 19 17 15 15 15 20 21 18 17 16 16 18 19 18 16 15 14 14 13 12 10 9 8 7 7 6 5 5 5 5 5 5 5 4 4 3 3 3 3 4 5 6 6 7 8 9 10
17 15 15 14 17 18 16 18 22 21 18 16 16 18 18 17 16 16 15 13 13 11 9 8 7 6 6 5 4 4 3 4 4 4 3 3 2 2 2 2 2 3 3 4 5 5 6 7 8
15 13 14 14 15 15 17 17 22 18 19 19 17 17 17 17 16 15 14 13 11 9 8 7 6 6 5 4 3 3 3 3 3 2 2 2 2 2 2 1 1 2 2 3 3 4 5 5 7
12 13 13 14 15 15 17 17 21 22 21 21 19 17 17 16 15 15 13 11 10 9 8 6 6 5 4 3 3 2 2 2 2 1 1 1 1 1 1 1 0 0 1 1 2 3 3 4 5
12 14 14 15 14 17 13 14 21 20 18 20 19 18 18 16 15 14 13 12 10 9 7 6 5 4 3 2 2 2 1 1 0 0 -0 -1 -1 -0 -0 -0 -0 -0 -0 0 1 1 2 2 3
12 13 16 17 18 18 12 14 20 18 18 18 17 17 18 17 15 14 13 11 9 8 6 5 4 3 3 2 1 1 1 0 -0 -1 -1 -2 -2 -1 -1 -1 -1 -1 -1 -0 0 1 1 1 2
11 11 13 11 6 14 19 18 19 17 16 15 15 15 15 16 15 13 12 10 8 7 6 4 3 2 2 1 1 0 0 -0 -1 -2 -2 -2 -2 -2 -2 -2 -2 -1 -1 -1 -1 -0 0 1 1
10 12 12 12 15 16 17 15 20 17 18 17 16 16 16 16 14 13 11 9 7 6 5 3 3 2 1 1 0 0 -1 -1 -1 -2 -2 -2 -2 -3 -3 -3 -2 -2 -2 -1 -1 -1 -0 -0 0
9 10 9 12 14 17 18 19 17 19 19 15 16 17 17 16 15 13 11 9 7 5 4 3 2 1 0 0 -0 -1 -1 -1 -2 -2 -3 -3 -3 -3 -3 -3 -3 -3 -2 -2 -2 -1 -1 -0 -0
13 12 11 15 13 13 13 18 14 17 18 17 16 15 15 14 13 13 10 8 6 5 3 2 1 0 0 -0 -1 -1 -1 -2 -3 -4 -4 -4 -4 -4 -4 -3 -3 -3 -2 -2 -2 -2 -1 -0 -0

GFSSGP_925_temp_291.txt.gz
Temp
20 20 19 20 17 16 18 20 22 23 25 23 24 22 20 20 21 20 21 21 22 20 20 19 19 19 19 19 19 19 19 19 19 19 19 19 19 19 19 19 19 19 19 19 19 19 19 19 19
20 21 19 17 17 17 17 20 23 23 23 23 23 22 22 20 21 20 19 20 20 19 19 19 19 18 18 18 19 19 18 19 19 18 19 19 19 19 19 19 19 19 19 19 18 19 19 19 19
19 19 17 16 16 16 17 23 24 24 23 24 23 21 20 20 20 19 19 19 19 19 19 18 18 18 18 18 18 18 18 18 18 18 18 18 18 18 18 18 18 18 18 18 18 18 18 19 18
19 18 17 17 17 19 20 23 25 23 24 25 22 19 19 21 21 19 19 19 19 18 18 18 18 18 18 18 18 18 18 18 18 18 18 18 17 17 18 18 18 18 17 17 18 18 18 18 18
18 16 16 17 18 19 20 22 24 24 23 23 23 20 19 21 20 19 19 18 19 17 17 17 18 18 18 18 18 18 18 17 17 18 18 18 17 17 17 17 17 17 17 17 16 17 18 18 17
17 16 16 16 18 20 22 23 23 23 24 23 22 19 18 21 20 19 18 18 18 17 17 17 17 17 17 17 17 17 17 17 17 17 17 18 18 17 17 17 17 17 17 17 17 17 17 17 18
16 16 16 18 18 20 24 22 21 23 22 23 22 20 18 19 20 19 19 18 17 17 17 17 17 17 17 17 17 17 17 17 17 17 17 17 17 17 17 17 17 17 17 17 17 17 17 17 17
16 16 18 17 18 19 22 22 22 22 21 23 22 18 17 18 20 20 19 18 18 17 17 17 16 16 17 17 17 17 17 17 17 17 17 18 17 17 16 16 16 17 16 16 16 17 17 17 17
19 16 16 18 19 20 22 21 21 20 21 22 20 19 18 20 20 20 19 18 18 17 17 17 16 16 15 15 15 15 15 15 16 16 16 17 17 17 17 17 16 16 15 15 16 16 16 17 17
16 15 16 19 20 19 21 20 20 21 20 20 17 17 19 20 19 19 18 17 17 16 16 16 16 15 15 15 14 14 14 15 15 15 16 16 16 16 17 17 17 17 17 16 15 15 16 16 16
17 15 18 19 19 18 19 20 21 20 19 19 17 16 16 18 18 18 18 18 17 17 16 16 15 15 15 14 14 14 14 14 14 14 15 15 15 15 16 16 16 16 16 16 16 16 15 15 15
17 18 18 19 18 18 18 17 18 19 18 19 17 16 15 16 16 18 18 18 17 16 16 16 15 15 14 14 14 14 14 14 14 14 14 14 13 13 13 13 14 14 14 14 15 15 16 15 15
16 17 18 17 17 17 17 16 16 16 16 17 16 16 15 15 16 18 19 18 18 16 16 15 14 14 14 14 14 14 14 14 13 13 13 13 12 12 12 12 12 12 12 12 13 13 14 14 14
17 17 17 18 16 17 17 15 16 15 15 15 15 15 15 15 15 17 17 17 17 17 16 15 14 13 13 13 13 13 13 13 13 13 12 12 11 11 10 10 10 10 11 11 11 12 12 13 13
17 17 16 16 16 16 15 14 13 14 17 15 14 13 14 14 16 16 17 17 17 17 15 14 14 13 13 12 12 12 13 13 12 12 11 10 10 9 9 9 9 9 9 10 10 11 11 11 12
16 16 15 17 15 14 15 14 16 14 14 15 14 12 13 13 15 16 17 18 17 15 14 13 13 12 12 12 12 12 12 12 11 10 9 9 8 8 8 7 7 7 7 8 8 9 10 10 11
14 12 13 15 14 13 14 13 16 15 13 13 12 12 13 13 13 16 17 17 15 15 14 13 12 12 12 11 12 12 11 10 9 8 8 8 7 6 6 6 6 6 6 6 6 7 8 8 9
13 13 14 15 14 14 12 12 13 12 15 13 12 11 12 12 12 15 15 15 14 13 13 12 12 11 11 11 11 10 10 9 8 7 7 6 6 5 5 5 5 5 4 5 5 6 6 7 8
16 15 15 13 14 14 12 12 13 13 12 12 11 11 11 11 11 14 14 14 13 13 12 12 11 10 10 10 9 8 8 7 7 6 5 5 5 5 4 4 4 4 3 3 4 4 5 6 7
13 15 14 14 13 13 13 12 13 13 14 14 13 11 12 11 10 11 12 13 13 12 12 11 10 10 9 8 7 6 5 5 5 5 4 4 4 4 3 3 3 3 3 2 3 3 3 4 5
13 13 14 15 13 12 12 11 13 15 13 13 13 14 13 11 11 10 10 12 12 11 11 10 10 9 8 7 6 5 5 5 4 3 3 3 2 2 2 2 2 2 2 1 2 2 3 3 4
13 14 15 14 13 11 12 10 13 17 15 14 12 11 12 11 11 11 10 10 11 11 10 10 9 8 7 6 5 4 3 2 2 2 2 2 1 1 1 1 1 2 2 1 1 2 2 3 3
13 13 13 14 12 11 12 8 13 15 15 13 11 11 10 9 11 10 9 11 11 10 10 9 8 7 6 5 4 3 3 2 2 2 1 1 0 -0 -0 -1 -1 -0 0 1 1 1 1 1 2
11 12 11 11 10 5 10 11 12 15 16 15 12 11 10 9 10 10 10 11 9 9 9 8 7 6 5 4 4 3 2 2 1 1 0 -0 -1 -1 -1 -1 -1 -1 -1 -1 -0 -0 0 0 1
12 10 7 7 4 7 11 10 12 15 16 15 12 11 9 10 9 8 7 7 8 8 8 7 7 5 4 4 3 2 2 1 1 0 -0 -1 -1 -1 -2 -2 -2 -2 -2 -2 -1 -1 -1 -0 -0
9 10 9 9 8 9 10 10 14 14 14 13 12 11 10 9 9 8 6 7 8 8 8 7 6 5 4 3 3 2 2 1 1 0 -1 -1 -1 -2 -2 -2 -2 -2 -2 -2 -2 -2 -1 -1 -1
10 9 11 7 2 6 9 11 13 14 14 11 11 10 10 9 8 8 7 8 8 8 7 7 5 4 3 2 2 2 2 1 0 -0 -1 -2 -2 -3 -3 -3 -3 -3 -3 -3 -3 -2 -2 -2 -1
9 10 10 6 9 8 9 12 14 12 12 11 11 10 9 9 8 7 6 6 8 8 7 6 4 4 3 2 2 2 1 1 0 -0 -1 -3 -4 -4 -4 -4 -4 -4 -3 -3 -3 -3 -2 -2 -2
7 8 8 8 8 8 8 12 11 14 12 10 10 9 9 9 8 7 5 6 7 7 6 5 4 3 2 2 2 1 1 1 -0 -1 -2 -4 -4 -4 -4 -4 -4 -4 -4 -3 -3 -3 -3 -2 -2
9 9 9 10 10 7 6 10 13 12 12 11 9 9 9 9 8 6 4 5 5 6 5 4 3 2 2 2 2 1 1 1 -0 -1 -2 -4 -3 -3 -3 -4 -4 -4 -3 -3 -3 -3 -3 -2 -2